SCP
0 0 0 0 0 0 0 0 0 0 0 0 0 0 0 0 0 0 0 0 0 0 0 0 0 0 0 0 0 0 0 0 0 0 0 0 0 0 0 0 0 0 0
0 0 0 0 0 0 0 0 0 0 0 0 0 0 0 0 0 0 0 0 0 0 0 0 0 0 0 0 0 0 0 0 0 0 0 0 -0 0 0 0 0 0 0
0 0 0 0 0 0 0 0 0 0 0 0 0 -0 -0 0 0 0 0 0 0 0 0 0 0 0 0 0 0 0 0 0 0 0 0 0 0 -0 0 0 0 0 0
0 0 0 0 0 0 0 0 0 0 0 0 0 -0 -0 -0 0 0 0 0 0 0 0 0 0 0 0 0 0 0 0 0 0 0 0 0 0 -0 0 0 0 0 0
0 0 0 0 0 0 0 0 0 0 0 0 0 -0 -0 0 0 0 0 0 0 0 0 0 0 0 0 0 0 0 0 0 0 0 0 0 0 0 0 0 0 0 0
0 0 0 0 0 0 0 0 0 0 0 0 0 0 0 0 0 0 0 0 0 0 0 0 0 0 0 0 0 0 0 0 0 0 0 0 0 0 0 0 0 0 0
0 0 0 0 0 0 0 0 0 0 0 0 0 0 0 0 0 0 0 0 0 0 0 0 0 0 0 0 0 0 0 0 0 0 0 0 0 0 0 0 0 0 0
0 0 0 0 0 0 0 0 0 0 0 0 0 0 0 0 0 0 0 0 0 0 0 0 0 0 0 0 0 0 0 0 0 0 0 0 0 0 0 0 0 0 0
0 0 0 0 0 0 0 0 0 0 0 0 0 0 0 0 0 0 0 0 0 0 0 0 0 0 0 0 0 0 0 0 0 0 0 0 0 0 0 0 0 0 0
0 0 0 0 0 0 0 0 0 0 0 0 0 0 0 0 0 0 0 0 0 0 0 0 0 0 0 0 0 0 0 0 0 0 0 0 0 0 0 0 0 0 0
0 0 0 0 0 0 0 0 0 0 0 0 0 0 0 0 0 0 0 0 0 0 0 0 0 0 0 0 0 0 0 0 0 0 0 0 0 0 0 0 0 0 0
0 0 0 0 0 0 0 0 0 0 0 0 0 0 0 0 0 0 0 0 0 0 0 0 0 0 0 0 0 0 0 0 0 0 0 0 0 0 0 0 0 0 0
0 0 0 0 0 0 0 0 0 0 0 0 0 0 0 0 0 0 0 0 0 0 0 0 0 0 0 0 0 0 0 0 0 0 0 0 0 0 0 0 0 0 0
0 0 0 0 0 0 0 0 0 0 0 0 0 0 0 0 0 0 0 0 0 0 0 0 0 0 0 0 0 0 0 0 0 0 0 0 0 0 0 0 0 0 0
0 0 0 0 0 0 0 0 0 0 0 0 0 0 0 0 0 0 0 0 0 0 0 0 0 0 0 0 0 0 0 0 0 0 0 0 0 0 0 0 0 0 0
0 0 0 0 0 0 0 0 0 0 0 0 0 0 0 0 0 0 0 0 0 0 0 0 0 0 0 0 0 0 0 0 0 0 0 0 0 0 0 0 0 0 0
0 0 0 0 0 0 0 0 0 0 0 0 0 0 0 0 0 0 0 0 0 0 0 0 0 0 0 0 0 0 0 0 0 0 0 0 0 0 0 0 0 0 0
0 0 0 0 0 0 0 0 0 0 0 0 0 0 0 0 0 0 0 0 0 0 0 0 0 0 0 0 0 0 0 0 0 0 0 0 0 0 0 0 0 0 0
0 0 0 0 0 0 0 0 0 0 0 0 0 0 0 0 0 0 0 0 0 0 0 0 0 0 0 0 0 0 0 0 0 0 0 0 0 0 0 0 0 0 0
0 0 0 0 0 0 0 0 0 0 0 0 0 0 0 0 0 0 0 0 0 0 0 0 0 0 0 0 0 0 0 0 0 0 0 0 0 0 0 0 0 0 0
0 0 0 0 0 0 0 0 0 0 0 0 0 0 0 0 0 0 0 0 0 0 0 0 0 0 0 0 0 0 0 0 0 0 0 0 0 0 0 0 0 0 0
0 0 0 0 0 0 0 0 0 0 0 0 0 0 0 0 0 0 0 0 0 0 0 0 0 0 0 0 0 0 0 0 0 0 0 0 0 0 0 0 0 0 0
0 0 0 0 0 0 0 0 0 0 0 0 0 0 0 0 0 0 0 0 0 0 0 0 0 0 0 -0 -0 0 0 0 0 0 0 0 0 0 0 0 0 0 0
0 0 0 0 0 0 0 0 0 0 0 0 0 0 0 0 0 0 0 0 0 0 0 0 0 0 0 -0 -0 0 0 0 0 0 0 0 0 0 0 0 0 0 0
0 0 0 0 0 0 0 0 0 0 0 0 0 0 0 0 0 0 0 0 0 0 0 -0 0 0 0 -0 -0 0 0 0 0 0 0 0 0 0 0 0 0 0 0
0 0 0 0 0 0 0 0 0 0 0 0 0 0 0 0 0 0 0 0 0 0 0 0 0 0 0 -0 -0 0 0 0 0 0 0 0 0 0 0 0 0 0 0
Wind_Speed
4 3 2 2 1 1 1 1 2 2 2 2 3 3 3 3 3 3 4 4 4 4 4 4 5 5 4 4 4 4 4 4 7 6 5 4 5 6 7 6 6 6 7
4 3 3 2 1 1 1 1 2 2 2 3 3 3 4 4 3 3 4 5 4 5 5 5 6 5 5 5 4 5 5 5 6 9 6 5 6 6 7 8 7 7 6
3 3 3 2 2 2 2 2 1 2 2 3 3 3 4 4 4 4 4 4 5 5 5 6 6 6 6 5 6 6 6 6 5 7 8 5 5 5 6 8 7 6 7
3 3 3 2 2 2 2 2 2 2 2 3 3 4 4 5 5 5 5 5 5 6 6 7 7 6 7 7 7 7 6 6 6 6 7 6 5 5 5 6 7 5 6
3 2 2 2 2 1 1 2 2 2 3 3 3 4 4 4 4 5 5 5 5 6 6 7 7 9 11 9 8 6 6 6 6 6 7 7 6 5 5 5 7 6 6
3 2 1 1 1 1 2 2 2 3 3 3 4 4 5 5 9 11 8 5 6 6 7 7 7 9 11 13 15 14 12 9 7 7 7 8 8 7 6 7 7 7 7
1 1 1 1 1 2 2 2 2 3 3 4 4 4 5 7 11 11 11 7 6 6 6 7 7 7 10 7 11 14 13 15 15 10 10 10 9 8 8 9 8 8 8
1 0 1 1 2 2 2 3 3 3 3 4 5 5 5 7 11 12 12 7 5 6 6 7 7 7 8 9 8 8 8 9 10 8 8 9 9 9 9 10 9 8 8
1 1 2 1 2 2 3 3 3 3 4 4 5 5 5 7 11 12 11 5 5 6 7 7 7 7 12 14 10 8 9 8 11 14 14 14 16 15 12 7 6 7 8
1 2 2 2 2 3 3 3 3 3 4 5 6 5 5 6 10 12 11 4 5 6 6 6 10 11 14 15 9 8 9 9 8 9 10 11 10 10 13 8 7 7 7
2 2 2 2 3 3 3 3 3 4 4 4 6 6 5 7 10 12 12 5 5 6 6 5 6 14 15 15 13 8 11 11 7 6 7 7 6 6 6 6 6 7 7
1 2 2 3 3 3 2 3 3 3 4 4 5 6 5 6 8 10 13 12 10 6 6 6 7 14 16 16 12 12 15 13 5 5 5 6 6 6 6 6 7 8 8
1 2 3 3 3 3 3 4 3 3 3 4 4 5 5 5 6 12 14 14 14 8 7 12 14 15 14 10 12 15 12 6 5 5 6 6 6 6 6 6 7 7 7
1 2 3 3 3 3 3 3 3 3 4 4 5 5 5 5 5 6 6 7 10 9 8 10 13 13 10 10 10 8 5 5 6 6 6 6 6 5 6 5 6 5 5
2 2 3 3 3 3 3 3 4 4 5 6 5 5 5 5 8 13 9 6 6 7 7 4 4 4 5 5 5 5 5 5 5 5 6 6 6 6 5 4 4 4 5
2 2 2 2 3 3 3 4 7 8 11 12 11 10 8 10 14 15 15 15 15 14 8 4 4 5 5 6 6 6 5 5 5 5 6 6 6 6 6 5 4 5 5
2 3 2 3 3 3 3 4 5 7 9 11 12 13 13 14 15 15 15 15 13 12 5 4 4 5 5 6 6 6 6 5 5 5 5 5 5 5 5 5 5 5 5
2 4 3 3 3 3 4 4 4 5 6 6 9 13 15 15 15 15 14 11 7 6 4 4 5 5 5 6 6 6 6 5 5 5 5 5 5 5 5 5 5 5 6
3 3 3 3 3 3 4 4 4 5 5 6 6 8 12 13 14 13 11 5 5 5 5 5 5 5 6 6 6 6 6 6 6 5 5 5 5 5 5 5 5 8 7
3 5 4 3 3 3 4 4 4 5 5 5 6 6 7 7 6 6 5 5 5 5 5 6 5 6 6 6 6 6 6 6 6 6 6 5 5 5 6 7 6 6 6
3 4 6 4 3 4 4 4 4 5 5 6 6 8 12 6 5 6 5 5 5 5 6 6 6 6 6 5 5 6 7 6 6 6 6 6 6 6 6 6 6 7 7
3 3 3 3 4 4 4 4 4 5 6 7 6 8 13 7 5 6 6 6 5 5 5 6 6 6 5 6 6 6 7 7 6 6 6 6 6 6 6 6 7 6 6
3 3 4 4 4 7 6 5 5 5 6 6 7 6 6 6 6 6 6 6 6 6 5 5 6 6 6 6 6 6 7 7 7 7 7 7 7 7 6 7 8 7 7
3 4 4 4 4 4 5 5 5 6 6 6 6 6 6 6 6 7 6 6 6 6 6 6 6 8 10 8 7 6 7 8 8 7 9 8 8 7 7 7 7 8 7
3 4 4 4 4 5 5 6 6 6 6 6 6 6 6 6 6 6 6 6 6 7 7 7 6 7 10 11 10 9 13 16 14 9 8 7 8 8 8 8 7 7 7
3 4 4 4 4 5 5 6 6 6 6 6 6 6 6 6 6 6 6 6 6 7 7 7 8 10 11 10 11 14 16 16 16 16 10 7 7 7 7 7 8 7 7
Wind_Direction
173 171 167 175 176 171 199 237 258 282 296 298 300 301 301 299 296 294 294 291 284 288 288 287 284 280 275 267 264 260 256 253 266 275 268 272 272 279 287 278 276 268 268
174 167 172 174 174 189 227 249 263 275 286 291 294 296 296 301 296 290 289 292 281 281 279 277 281 283 282 273 266 264 260 256 259 274 277 264 262 264 273 275 278 280 270
169 168 174 181 191 217 241 259 268 275 288 298 298 293 295 297 296 291 285 286 277 273 271 270 274 275 279 280 273 269 264 264 258 265 275 269 264 261 270 276 271 270 276
167 171 184 196 209 225 242 261 269 273 278 284 288 289 292 293 293 291 289 286 282 278 274 269 268 268 270 275 274 269 266 262 259 262 272 275 267 258 255 270 276 266 272
164 174 199 207 209 227 252 265 273 281 285 281 283 287 289 287 282 284 283 284 284 284 283 277 272 273 275 277 278 273 270 266 263 264 269 277 274 267 261 265 272 276 269
161 186 208 210 225 248 259 265 274 280 284 284 282 282 287 290 295 295 294 285 285 285 287 287 282 281 283 285 285 286 281 275 269 265 269 268 272 270 268 267 267 272 274
155 191 216 226 247 261 273 282 281 282 285 283 284 282 281 285 295 297 296 295 286 285 286 287 288 288 294 289 286 285 284 278 274 270 266 264 267 267 268 267 261 261 267
87 298 269 260 266 281 284 283 283 281 280 280 284 281 281 288 300 301 300 297 285 282 281 281 283 286 284 287 281 282 281 278 276 274 266 266 267 264 259 262 265 269 272
19 324 308 292 283 288 289 288 285 286 286 282 286 284 283 291 300 302 302 291 285 282 282 284 286 283 287 291 288 284 285 282 284 281 279 281 282 283 279 275 269 267 272
323 315 316 310 298 289 285 287 286 284 286 293 298 293 285 285 296 302 304 291 287 288 286 283 286 291 293 292 286 279 282 283 282 286 286 285 283 281 282 269 261 261 269
329 334 331 320 303 289 288 290 291 294 299 297 296 296 289 290 299 302 302 297 287 288 289 288 287 293 294 294 294 285 284 292 287 285 285 281 277 270 265 259 253 253 258
345 343 331 319 309 312 300 298 298 295 297 296 297 298 291 291 300 301 301 299 297 288 286 285 285 292 294 296 297 295 297 301 293 288 287 282 279 276 271 266 264 259 256
349 329 319 320 317 317 309 302 302 296 291 294 292 293 297 297 296 301 301 300 298 293 286 290 294 296 299 300 299 301 303 298 289 282 281 281 276 276 278 276 273 269 267
319 311 314 317 317 316 309 304 299 292 288 289 289 291 294 296 294 294 292 295 295 293 290 291 296 301 304 304 302 300 295 289 288 283 285 285 287 281 275 274 277 274 275
303 302 308 310 304 305 304 291 296 277 280 291 286 286 294 293 297 305 310 303 299 292 302 296 296 299 299 298 293 290 288 291 289 286 286 287 287 286 283 282 278 278 273
297 298 292 295 296 298 301 306 308 306 309 307 306 304 300 302 309 312 312 311 311 311 312 305 297 296 293 297 296 292 288 285 285 286 285 284 283 284 286 285 276 269 270
270 285 287 293 297 299 301 303 308 313 314 314 314 314 312 314 314 314 314 314 314 316 309 297 295 296 296 296 296 292 289 287 286 286 286 285 284 283 281 281 277 274 274
277 283 290 281 285 290 292 294 296 303 309 309 314 316 317 317 317 318 319 320 313 312 297 293 292 294 294 294 295 296 295 294 291 288 286 283 282 280 278 278 276 274 274
279 276 281 282 283 286 291 293 294 295 297 301 304 311 316 316 316 317 321 313 301 299 295 289 287 289 290 291 291 291 292 290 289 288 287 285 282 279 276 274 275 279 279
278 291 299 292 290 293 293 294 295 295 295 297 298 302 308 310 309 311 309 301 297 295 293 290 289 288 288 287 288 290 290 291 290 286 285 285 283 278 275 274 272 272 272
279 289 301 300 291 290 290 290 290 291 291 292 291 297 307 306 301 298 298 296 293 292 293 292 291 291 288 286 285 286 285 285 285 285 283 281 281 279 275 272 272 269 271
274 277 282 285 290 291 291 288 288 287 288 290 292 298 307 304 294 293 293 292 289 286 286 287 286 284 284 284 284 284 281 279 279 280 279 277 276 277 275 271 269 269 270
280 284 286 287 288 296 300 292 288 288 288 289 291 293 295 293 291 290 291 292 291 288 287 284 284 285 285 283 279 276 276 276 275 273 276 278 275 273 272 272 270 269 268
274 277 281 286 288 286 288 289 289 289 289 289 290 291 291 291 290 289 289 290 290 288 287 285 281 282 285 287 283 278 274 275 273 268 265 267 271 272 270 270 272 271 269
276 279 280 282 286 288 289 289 289 290 291 292 293 293 294 294 294 293 290 289 289 289 289 288 285 284 287 287 286 284 285 288 288 280 268 265 268 270 270 270 271 273 271
281 280 280 281 282 284 286 289 290 292 291 292 293 293 294 295 295 295 296 294 295 294 293 292 288 288 289 291 290 291 293 295 296 294 285 272 269 270 271 269 270 270 271